Location: Albany
(42.6526°N, 73.7562°W)
Time: 08:05:44
(UTC+00:00)

Cosmos 2322 Rocket - Pass Details

Date: 19 November 2019
Orbit: 832 x 851 km, 71.0° (Epoch: 12 December)

Event Time Altitude Azimuth Distance (km) Brightness Sun altitude
Rises 22:43:47 0° 158° (SSE) 3,362 5.2 -13.7°
Reaches altitude 10° 22:46:58 10° 140° (SE) 2,434 4.3 -14.3°
Enters shadow 22:50:06 18° 105° (ESE) 1,955 3.6 -14.8°
